"Pseudo-MPEC" for P11SWt1

Created 2024 Apr 20 21:22:08 UT using Find_Orb

Click here for an explanation of pseudo-MPECs

 
 Astrometry: 
     P11SWt1* C2024 03 31kb:HO%*Astrometry`:M,Qw6Qb^ga7adG]8B/WgqLj!Qtakmwy]NF51
     P11SWt1  C2024 03 31Vf\gCCX*-redacted;%g!QWiH]3#5-dclickZc2W=o`sILUkoRI`F51
     P11SWt1  C2024 03 31OA:*rKMu/`xDH=$1)6NRvGHVmr/LoEmcP@4WoCGAfdherewG6L2MF51
     P11SWt1 KB2024 03 31V4*#`9s2b?forZKIT_I]Dp$explanationd5X\nh6ZoFIyI/lCvT958
     P11SWt1 KB2024 03 310YedsEgVD74.LmJc;lSvEoI.bF^pbnP'2IMSYKkm3q`8Z^4RhQp7958
     P11SWt1 KB2024 03 31_28x(l2(Y[/2:4#bGO9/$xw0xeaHW!ZoycIku+$1n7%(ng*CjC-H958

Station data:
(958) Observatoire de Dax  (N43.693381 W1.030530)  France.  Observer P.
   Dupouy. 0.32-m Schmidt-Cassegrain.
(F51) Pan-STARRS 1, Haleakala  (N20.707234 W156.255910)  US/Hawaii.
   Observers J. Bulger, T. Lowe, A. Schultz, M. Willman. Measurers K.
   Chambers, S. Chastel, T. de Boer, L. Denneau, J. Fairlamb, H. Flewelling,
   M. Huber, C.-C. Lin, E. Magnier, Y. Ramanjooloo, R. Wainscoat, R. Weryk.
   1.8-m Ritchey-Chrétien + CCD.

Orbital elements:  P11SWt1
   Perihelion 2024 Apr 21.15399 +/- 15.4 TT =  3:41:44 (JD 2460421.65399)
Epoch 2024 Apr  1.0 TT = JDT 2460401.5   Earth MOID: 0.0375      AutoNEOCP
M 341.58465928 +/- 13               (J2000 ecliptic)
n   0.91373192 +/- 0.00462          Peri.  204.18412 +/- 14
a   1.05177663 +/- 0.00355          Node     5.51300 +/- 0.07
e   0.0171384 +/- 0.00496           Incl.   12.25980 +/- 0.33
P   1.08/393.98d           H 25.43  G  0.15   U  9.1
q 1.03375080 +/- 0.00207    Q 1.06980246 +/- 0.00875
From 6 observations 2024 Mar. 31 (13.8 hr); mean residual 0".39
Residuals in arcseconds: 
240331 F51  .04+  .17+    240331 F51  .04+  .02+    240331 958  .43-  .64-    
240331 F51  .09-  .20-    240331 958  .65+  .82+    240331 958  .21-  .15-    

Ephemerides (geocentric):
Date (UTC) HH   RA             Dec           delta  r     elong  mag " sig PA
---- --------  ------------   ------------  ------ ------ -----  --- --------
2024 04 20 21  08 28 22.847   -48 52 46.98  .09891 1.0337 104.3 22.9 1276  52
2024 04 20 22  08 28 15.814   -48 54 01.59  .09904 1.0337 104.3 23.0 1278  52
2024 04 20 23  08 28 08.802   -48 55 15.98  .09917 1.0337 104.2 23.0 1279  52
2024 04 21 00  08 28 01.811   -48 56 30.16  .09930 1.0337 104.2 23.0 1281  53
2024 04 21 01  08 27 54.840   -48 57 44.12  .09943 1.0337 104.2 23.0 1283  53
2024 04 21 02  08 27 47.890   -48 58 57.87  .09956 1.0337 104.1 23.0 1285  53
2024 04 21 03  08 27 40.960   -49 00 11.41  .09969 1.0337 104.1 23.0 1287  53
2024 04 21 04  08 27 34.050   -49 01 24.73  .09982 1.0337 104.1 23.0 1289  53
2024 04 21 05  08 27 27.161   -49 02 37.85  .09995 1.0337 104.0 23.0 1291  53
2024 04 21 06  08 27 20.292   -49 03 50.75  .10008 1.0337 104.0 23.0 1292  53
2024 04 21 07  08 27 13.443   -49 05 03.45  .10021 1.0337 104.0 23.0 1294  53
2024 04 21 08  08 27 06.614   -49 06 15.94  .10034 1.0337 103.9 23.0 1296  53
2024 04 21 09  08 26 59.805   -49 07 28.22  .10047 1.0337 103.9 23.0 1298  53
2024 04 21 10  08 26 53.017   -49 08 40.29  .10060 1.0337 103.9 23.0 1300  53
2024 04 21 11  08 26 46.248   -49 09 52.16  .10073 1.0337 103.8 23.0 1302  53
2024 04 21 12  08 26 39.499   -49 11 03.83  .10086 1.0337 103.8 23.0 1303  53
2024 04 21 13  08 26 32.769   -49 12 15.29  .10099 1.0337 103.8 23.0 1305  53
2024 04 21 14  08 26 26.060   -49 13 26.56  .10112 1.0337 103.7 23.0 1307  53
2024 04 21 15  08 26 19.370   -49 14 37.62  .10125 1.0337 103.7 23.0 1309  53
2024 04 21 16  08 26 12.700   -49 15 48.48  .10137 1.0337 103.7 23.0 1311  53
2024 04 21 17  08 26 06.049   -49 16 59.14  .10150 1.0337 103.6 23.0 1313  53
2024 04 21 18  08 25 59.418   -49 18 09.61  .10163 1.0337 103.6 23.0 1314  53
2024 04 21 19  08 25 52.807   -49 19 19.87  .10176 1.0337 103.6 23.0 1316  53
2024 04 21 20  08 25 46.214   -49 20 29.94  .10189 1.0337 103.5 23.0 1318  53
2024 04 21 21  08 25 39.641   -49 21 39.82  .10202 1.0337 103.5 23.0 1320  53
2024 04 21 22  08 25 33.088   -49 22 49.50  .10215 1.0337 103.5 23.0 1322  53
2024 04 21 23  08 25 26.553   -49 23 58.99  .10228 1.0337 103.4 23.0 1323  53
2024 04 22 00  08 25 20.038   -49 25 08.28  .10241 1.0337 103.4 23.0 1325  53
2024 04 22 01  08 25 13.542   -49 26 17.38  .10254 1.0337 103.4 23.0 1327  53
2024 04 22 02  08 25 07.064   -49 27 26.29  .10267 1.0337 103.4 23.1 1329  53
2024 04 22 03  08 25 00.606   -49 28 35.02  .10280 1.0337 103.3 23.1 1331  53
2024 04 22 04  08 24 54.167   -49 29 43.55  .10293 1.0337 103.3 23.1 1332  53
2024 04 22 05  08 24 47.747   -49 30 51.89  .10306 1.0337 103.3 23.1 1334  53
2024 04 22 06  08 24 41.345   -49 32 00.05  .10319 1.0337 103.2 23.1 1336  53
2024 04 22 07  08 24 34.962   -49 33 08.02  .10332 1.0337 103.2 23.1 1338  53
2024 04 22 08  08 24 28.598   -49 34 15.81  .10345 1.0337 103.2 23.1 1339  53
2024 04 22 09  08 24 22.253   -49 35 23.41  .10358 1.0337 103.1 23.1 1341  53
2024 04 22 10  08 24 15.926   -49 36 30.82  .10371 1.0337 103.1 23.1 1343  53
2024 04 22 11  08 24 09.617   -49 37 38.06  .10383 1.0337 103.1 23.1 1345  53
2024 04 22 12  08 24 03.327   -49 38 45.11  .10396 1.0337 103.0 23.1 1347  53
2024 04 22 13  08 23 57.056   -49 39 51.98  .10409 1.0337 103.0 23.1 1348  53
2024 04 22 14  08 23 50.803   -49 40 58.66  .10422 1.0337 103.0 23.1 1350  53
2024 04 22 15  08 23 44.568   -49 42 05.17  .10435 1.0337 103.0 23.1 1352  53
2024 04 22 16  08 23 38.352   -49 43 11.50  .10448 1.0337 102.9 23.1 1354  53
2024 04 22 17  08 23 32.153   -49 44 17.65  .10461 1.0337 102.9 23.1 1355  53
2024 04 22 18  08 23 25.973   -49 45 23.63  .10474 1.0337 102.9 23.1 1357  53
2024 04 22 19  08 23 19.811   -49 46 29.43  .10487 1.0337 102.8 23.1 1359  54
2024 04 22 20  08 23 13.667   -49 47 35.05  .10500 1.0337 102.8 23.1 1361  54